Weather past 2 weeks in Bantam, Cocos Islands

Now
79 °F

Passing clouds.


Feels Like: 82 °F
Forecast: 79 / 83 °F
Wind: 15 mph from Southeast

Location: Cocos Island Airport

Current Time: Oct 31, 2014 at 12:06:38 AM

Latest Report: Oct 30, 2014 at 11:30 PM


Visibility: N/A

Pressure: 29.92 "Hg

Humidity: 79%

Dew point: 72 °F

Location of BantamLocation

Historic Weather in Bantam — Graph

°F

Bantam temperature yesterday

Maximum temperature yesterday: 84 °F (at 12:00 PM)
Minimum temperature yesterday: 79 °F (at 12:00 AM)
Average temperature yesterday: 80 °F

Past Weeks' High & Low Weather Summary

 TemperatureHumidityPressure
High84 °F (Oct 21, 11:00 AM)94% (Oct 18, 3:30 AM)30.01 "Hg (Oct 18, 3:30 AM)
Low73 °F (Oct 18, 3:30 AM)54% (Oct 17, 8:00 AM)29.86 "Hg (Oct 17, 3:00 PM)
Average80 °F75%29.93 "Hg
* Reported Oct 15 10:30 PM — Oct 30 10:30 PM, Bantam, Weather by CustomWeather, © 2014

Note: Actual official high and low records may vary slightly from our data, if they occured in-between our weather recording intervals... More about our weather records

Advertising

Bantam weather history for previous 24 hours

 ConditionsComfort  
Time TempWeatherWind HumidityBarometerVisibility
10:30 PM
Oct 30
79 °FClear.17 mph79%29.92 "HgN/A
10:00 PM79 °FPassing clouds.16 mph79%29.92 "HgN/A
9:30 PM79 °FWarm.15 mph79%29.92 "HgN/A
9:00 PM79 °FClear.16 mph79%29.92 "HgN/A
8:30 PM81 °FPassing clouds.16 mph74%29.92 "HgN/A
8:00 PM81 °FClear.15 mph74%29.92 "HgN/A
7:30 PM81 °FPartly cloudy.14 mph74%29.92 "HgN/A
7:00 PM81 °FBroken clouds.15 mph79%29.89 "HgN/A
6:30 PM81 °FScattered clouds.14 mph74%29.89 "HgN/A
6:00 PM81 °FSunny.15 mph74%29.89 "HgN/A
5:30 PM81 °FScattered clouds.14 mph74%29.86 "HgN/A
5:00 PM81 °FScattered clouds.14 mph74%29.86 "HgN/A
4:30 PM82 °FScattered clouds.15 mph70%29.86 "HgN/A
4:00 PM82 °FPassing clouds.15 mph66%29.86 "HgN/A
3:30 PM82 °FPassing clouds.15 mph70%29.86 "HgN/A
3:00 PM84 °FPassing clouds.16 mph66%29.86 "HgN/A
2:30 PM82 °FPassing clouds.16 mph70%29.86 "HgN/A
2:00 PM84 °FPassing clouds.16 mph66%29.86 "HgN/A
1:30 PM82 °FPassing clouds.18 mph70%29.86 "HgN/A
1:00 PM82 °FPassing clouds.17 mph66%29.86 "HgN/A
12:30 PM84 °FPassing clouds.15 mph62%29.89 "HgN/A
12:00 PM84 °FPassing clouds.16 mph66%29.89 "HgN/A
11:30 AM81 °FScattered showers. Scattered clouds.16 mph74%29.92 "HgN/A
11:00 AM82 °FScattered clouds.15 mph70%29.92 "HgN/A
10:30 AM82 °FPassing clouds.17 mph70%29.92 "HgN/A
10:00 AM82 °FPassing clouds.16 mph70%29.92 "HgN/A
9:30 AM81 °FScattered clouds.15 mph79%29.95 "HgN/A
9:00 AM81 °FScattered showers. Scattered clouds.16 mph70%29.95 "HgN/A
8:30 AM81 °FPassing clouds.15 mph74%29.95 "HgN/A
8:00 AM81 °FScattered clouds.17 mph70%29.95 "HgN/A
7:30 AM79 °FRain showers. Scattered clouds.15 mph79%29.92 "HgN/A
7:00 AM79 °FScattered showers. Scattered clouds.10 mph84%29.92 "HgN/A
6:30 AM79 °FRain showers. Partly sunny.10 mph79%29.92 "HgN/A
6:00 AM79 °FScattered showers. Passing clouds.13 mph79%29.89 "HgN/A
5:30 AM79 °FScattered showers. Passing clouds.17 mph79%29.89 "HgN/A
5:00 AM79 °FPartly cloudy.17 mph79%29.89 "HgN/A
4:30 AM79 °FPartly cloudy.14 mph74%29.89 "HgN/A
4:00 AM79 °FClear.15 mph74%29.86 "HgN/A
3:30 AM79 °FClear.17 mph74%29.86 "HgN/A
3:00 AM79 °FClear.16 mph74%29.86 "HgN/A
2:30 AM79 °FMostly cloudy.15 mph79%29.86 "HgN/A
2:00 AM79 °FPassing clouds.15 mph79%29.86 "HgN/A
1:30 AM79 °FPassing clouds.18 mph74%29.86 "HgN/A
1:00 AM79 °FWarm.18 mph74%29.89 "HgN/A
12:30 AM79 °FPassing clouds.18 mph79%29.89 "HgN/A
12:00 AM79 °FPassing clouds.17 mph74%29.89 "HgN/A
Weather by CustomWeather, © 2014

See weather overviewHow to use our weather pages